Temp_Advection
nan nan nan nan nan nan nan nan nan nan nan nan nan nan nan nan nan nan nan nan nan nan nan nan nan nan nan nan nan nan nan nan nan nan nan nan nan nan nan nan nan nan nan nan nan nan nan nan nan nan nan nan nan nan
nan 0 0 0 -0 -0 0 0 0 0 0 0 0 0 0 0 0 0 0 0 0 0 0 0 0 0 -0 0 -0 -0 0 -0 -0 -0 -0 0 0 0 -0 -0 0 -0 -0 0 -0 -1 0 1 1 0 0 0 0 nan
nan 0 0 -0 0 -0 0 0 0 0 0 0 0 0 0 0 0 0 0 0 0 -0 -0 0 0 1 0 0 0 -0 -0 -0 0 -0 -0 -0 -0 -0 0 -0 -0 -0 0 0 -0 -1 0 0 0 0 0 0 -0 nan
nan 0 0 0 0 0 0 0 0 0 0 0 0 0 0 0 0 0 0 0 0 0 -0 0 0 0 0 0 0 0 -0 -0 0 0 -0 0 -0 0 -0 -1 -0 -0 0 0 -0 -0 -0 0 -0 -0 -0 0 0 nan
nan -0 -0 -0 0 0 0 0 0 0 0 0 0 0 0 0 0 0 0 0 0 0 -0 0 0 0 0 0 0 0 1 1 0 -0 -0 -0 -0 0 0 -0 -1 -1 1 1 0 -0 0 0 0 -0 0 0 0 nan
nan -0 -0 -0 -0 -0 0 -0 0 0 -0 -0 0 0 0 0 0 0 0 0 0 0 -0 -0 0 0 1 1 1 1 1 1 1 -0 -0 -0 -0 0 0 -0 -1 -1 0 1 1 0 0 0 0 0 0 0 -0 nan
nan -0 -0 -0 -0 -0 -0 -0 -0 -0 -0 -0 -0 0 0 0 0 0 0 0 0 0 0 -0 0 0 1 1 1 0 1 0 0 0 0 0 0 1 -0 -1 -0 1 0 0 1 0 -0 0 0 0 -0 -0 -0 nan
nan -0 -0 -0 -0 -0 -0 -0 -0 0 -0 0 -0 -0 -0 0 0 0 0 0 0 0 0 -0 0 0 0 0 0 0 0 0 0 0 0 0 0 0 -0 -0 0 -0 0 0 0 0 -0 -0 0 -0 0 0 -0 nan
nan -0 -0 0 -0 -0 -0 -0 -0 -0 -0 -0 -0 -0 0 0 0 -0 0 0 0 0 0 -0 0 -0 0 0 0 0 0 0 0 0 0 0 0 -0 0 0 0 0 0 0 0 0 0 -0 0 -0 -0 -0 -0 nan
nan -0 -0 0 0 -0 -0 -0 -0 -0 1 1 1 0 0 0 0 0 0 0 1 1 0 0 0 0 0 -0 0 0 0 0 -0 -0 -0 -0 -0 0 0 0 0 0 0 0 0 0 0 -0 -0 0 -0 -0 -0 nan
nan -0 -0 -0 0 0 -0 -0 0 1 2 1 0 1 0 1 1 1 0 1 0 0 0 0 0 0 0 -0 -0 0 -0 0 -0 -0 -0 -0 -0 0 0 0 1 1 0 0 0 0 0 0 -0 0 0 -0 -0 nan
nan -0 -0 -0 -0 -0 -0 0 0 1 0 1 1 1 1 0 0 0 0 0 -0 0 0 0 0 0 0 0 -0 0 -0 -0 0 -0 -0 -0 0 -0 -0 0 0 0 0 0 -0 -0 -0 0 0 0 0 0 -0 nan
nan 0 -0 -0 -0 0 0 -0 0 0 0 1 0 -0 0 0 0 0 -0 -0 -0 0 0 0 0 0 0 0 -0 -0 0 0 0 -0 -0 0 0 -0 0 0 0 0 0 -0 -0 -0 0 0 0 0 0 0 -0 nan
nan 0 -0 -0 0 -0 -0 -0 -0 0 -0 -0 0 0 0 0 -0 -0 -0 -0 -0 0 0 -0 -0 -0 -0 0 0 0 -0 -0 -0 -0 -0 0 0 0 0 0 0 0 -0 -0 0 0 0 0 0 0 0 0 0 nan
nan -0 0 -0 -0 -0 0 0 -0 -0 -0 0 0 -0 -0 -0 0 0 0 0 0 0 0 -0 0 -0 -0 0 -0 0 -0 -0 -0 -0 -0 0 0 0 0 0 0 -0 0 0 -0 0 0 0 -0 0 0 0 0 nan
nan 0 -0 0 0 0 0 0 0 -0 0 -0 -0 -0 0 0 -0 0 -0 0 0 0 0 -0 -0 -0 0 -0 -0 -0 -0 -0 0 0 0 0 0 -0 0 0 0 0 -0 0 0 0 0 0 0 -0 -0 -0 0 nan
nan -0 -0 0 0 0 0 0 0 -0 -0 -0 -0 0 0 0 -0 0 0 0 0 0 0 -0 0 -0 -0 -0 -0 0 0 0 0 0 0 0 0 0 0 0 -0 -0 0 0 0 0 0 0 0 -0 -0 -0 -0 nan
nan -0 0 0 0 0 0 -0 -0 -0 -0 0 0 0 0 0 0 0 0 0 0 0 0 0 -0 0 -0 0 0 0 0 0 0 -0 0 -0 0 0 0 0 0 0 0 -0 0 0 -0 0 0 0 -0 -1 -0 nan
nan 0 0 0 0 -0 -0 0 -0 -0 -0 0 0 0 0 0 0 0 0 0 0 0 0 0 -0 -0 0 0 -0 -0 -0 -0 0 0 0 -1 -0 0 0 0 0 0 0 0 0 0 0 -0 0 0 0 -0 -0 nan
nan 0 0 0 0 0 -0 -0 0 -0 -0 -0 0 0 0 0 0 0 0 0 0 0 0 -0 -0 0 -0 -0 -0 0 0 0 0 0 0 -0 -0 -0 -0 0 0 0 -0 -0 -0 -0 0 0 0 1 1 1 -0 nan
nan 0 1 1 1 -0 -0 -0 -0 -0 0 -0 0 0 0 0 0 0 0 0 0 -0 -0 -0 -0 -0 0 0 0 0 0 0 0 0 0 0 0 -0 -1 -0 0 0 0 -0 -0 -0 0 0 1 1 1 1 1 nan
nan 0 0 -0 -0 0 -0 -0 0 0 -0 -0 0 -0 -0 -0 0 0 0 0 -0 -0 -0 -0 -0 0 0 -0 0 0 0 0 0 0 -0 0 0 0 0 0 0 0 0 0 0 0 0 0 0 0 1 1 0 nan
nan -0 -0 -0 -0 -0 -0 0 0 0 0 -0 0 0 -0 -0 0 0 -0 -0 -0 -1 -1 -0 -0 0 -0 -0 -0 0 0 0 0 0 -0 -0 -0 -0 -0 0 -0 -0 -0 0 1 1 0 0 0 1 1 -0 -0 nan
nan 0 -0 -0 -0 -0 -0 -0 0 0 0 0 0 0 0 0 -0 -0 -0 -0 -1 -0 0 0 0 -0 -0 -0 -0 0 0 0 0 -0 -0 -0 -0 -0 -0 -1 -0 0 -0 0 0 0 0 0 1 1 0 0 0 nan
nan -0 -0 -0 0 0 0 0 0 0 -0 -0 0 0 0 0 -0 -0 -0 -0 -0 -0 0 0 0 0 -0 -0 -0 -0 0 0 0 -0 0 -0 -1 -1 0 0 -1 -1 -0 -0 0 0 0 0 0 0 0 -0 -0 nan
nan 0 -0 -0 0 0 0 0 0 0 0 0 0 0 0 -0 -0 -0 -0 -0 -0 0 -0 -0 -0 -0 -0 -0 -0 -0 -0 0 0 -0 -0 0 -0 -0 -0 0 -0 -1 -0 -0 -0 0 0 0 0 -0 -0 -0 -0 nan
nan -0 -0 0 -0 -0 -0 -0 0 0 -0 -0 0 -0 -0 -0 -0 0 0 -0 0 0 -0 -0 -0 -0 -0 -1 -1 -1 -0 0 0 -0 -0 0 1 0 -0 -0 0 0 -0 0 0 0 0 0 0 -0 -0 -0 -0 nan
nan 0 -0 0 0 0 -0 -0 -0 -0 -0 -0 -0 -0 -0 -0 0 0 0 -0 -0 -0 -0 -0 -0 0 -0 -0 -0 -1 -1 -1 -1 -1 -0 0 -0 0 0 0 0 0 0 0 -0 0 0 0 -0 -0 -0 0 -0 nan
nan -0 -0 -0 0 -0 -0 -0 -0 -0 -0 -0 -0 -0 0 0 0 -0 -0 -0 -0 -1 -1 -1 -1 -1 -1 -1 -0 -1 -1 -1 -1 -1 -1 -1 -0 1 0 0 -0 -0 -0 -0 -0 -0 -0 -0 -0 0 0 0 -0 nan
nan 0 -0 -0 -0 -0 -0 -0 -0 -0 0 -0 0 0 0 1 0 0 -0 -1 -1 -1 -1 -1 -2 -1 -1 -1 -1 -1 -1 -1 -1 -1 -1 -1 -1 -1 -1 -1 -0 -0 -0 -0 -0 -0 -0 -0 -0 -0 -0 -0 -0 nan
nan 0 -0 -0 -0 -0 -0 0 0 0 0 0 0 0 1 1 1 -0 -0 -1 -1 -1 -1 -1 -1 -1 -1 -1 -1 -1 -0 -1 -0 -0 -0 -0 -0 -1 -1 -1 -1 -0 -0 -0 -0 -0 -0 -0 -0 -0 -0 -0 -0 nan
nan 0 0 0 -0 -0 -0 0 0 0 0 0 0 1 1 0 -0 -0 -0 -0 -0 -1 -1 -1 -0 -0 -0 -0 -0 -0 -0 -1 -1 -1 -1 -0 -0 -0 -0 -0 -0 -0 -0 -0 -0 -0 -0 -0 -0 -0 -0 -0 -0 nan
nan nan nan nan nan nan nan nan nan nan nan nan nan nan nan nan nan nan nan nan nan nan nan nan nan nan nan nan nan nan nan nan nan nan nan nan nan nan nan nan nan nan nan nan nan nan nan nan nan nan nan nan nan nan
Wind_Speed
13 26 19 19 19 17 17 17 16 15 14 14 12 10 9 8 8 9 8 8 6 4 12 9 9 11 8 8 5 9 6 2 3 3 3 3 2 3 3 2 3 3 2 4 3 4 6 2 2 2 5 12 7 7
5 9 21 19 19 18 16 17 16 16 14 14 13 11 10 9 8 8 8 7 8 5 8 11 9 10 10 10 11 13 1 6 7 4 3 3 3 1 1 3 4 4 5 4 7 6 7 13 11 7 7 7 7 2
7 1 9 16 19 18 19 15 16 15 14 14 13 12 10 10 9 9 9 9 8 6 6 9 9 11 11 11 11 7 6 8 7 6 7 2 3 5 4 6 4 5 7 4 6 11 14 14 10 5 6 4 3 6
7 6 2 11 17 24 23 19 18 15 15 14 14 13 12 10 10 9 10 10 10 6 5 6 10 13 13 11 11 10 8 13 10 8 4 3 3 9 4 6 8 10 8 11 12 18 16 7 2 5 7 5 6 4
5 6 4 7 11 15 24 25 22 18 17 15 14 13 13 12 10 9 10 12 13 7 4 5 11 12 13 13 12 11 11 14 11 6 4 4 4 4 2 1 7 15 12 5 4 5 9 4 7 9 9 5 4 6
5 5 2 3 9 14 19 27 25 22 19 17 15 14 14 13 11 9 5 9 11 10 4 2 5 10 14 14 13 13 12 13 9 6 5 5 6 7 4 3 9 14 12 15 13 7 5 6 3 3 3 4 6 9
5 6 6 5 1 8 14 24 28 28 23 18 17 16 15 14 14 9 4 4 15 12 4 2 3 5 14 13 12 11 14 7 7 5 6 7 7 9 2 5 9 10 6 6 9 7 3 5 3 2 4 6 11 16
3 3 6 7 4 3 8 15 31 31 27 23 19 17 13 13 13 15 9 4 7 8 5 3 2 2 9 6 6 9 7 7 6 4 3 3 3 5 4 8 2 2 2 1 2 2 4 7 2 4 8 13 17 20
2 3 5 6 6 4 5 14 19 33 29 26 21 18 16 18 13 15 15 12 9 8 4 5 6 4 10 5 5 5 5 3 4 4 3 5 3 5 5 6 2 4 6 6 9 8 4 1 5 9 13 16 19 21
3 2 3 6 5 4 7 7 17 25 32 31 32 17 8 10 13 14 11 7 8 8 6 6 5 3 6 6 3 5 3 2 3 2 2 2 2 4 5 5 5 8 12 12 8 4 2 5 10 13 14 16 17 21
4 2 3 4 7 3 4 5 10 17 28 29 10 11 11 24 16 9 6 6 5 1 5 5 6 4 4 2 3 3 2 2 2 2 2 2 3 7 8 12 13 12 10 6 4 0 5 9 12 14 17 19 24 25
9 4 3 5 7 4 2 4 13 13 8 12 14 21 17 6 3 4 4 4 3 4 7 7 5 5 6 4 3 3 1 2 2 2 2 3 3 10 14 15 11 10 8 3 3 7 12 15 15 19 22 24 25 27
11 8 1 1 5 4 6 4 11 9 19 17 5 5 4 2 3 5 6 3 4 7 7 7 4 4 4 3 5 2 4 2 3 3 3 3 9 14 15 12 11 9 4 5 10 14 16 17 17 19 23 23 25 29
12 11 4 1 5 4 7 9 7 9 4 4 2 4 1 3 2 2 2 3 4 5 13 14 6 2 2 3 2 2 2 2 3 4 5 4 14 14 11 11 9 4 6 13 16 17 18 18 20 23 23 23 26 29
15 15 9 7 3 4 9 16 13 6 3 3 2 2 2 4 5 6 8 8 7 13 13 9 6 2 2 3 1 3 4 4 4 3 0 9 13 11 11 10 5 9 15 19 20 22 20 19 23 26 24 24 27 29
8 16 15 10 9 6 10 7 5 5 3 2 4 4 5 4 3 6 9 12 13 16 10 4 3 3 2 3 4 5 3 5 1 1 4 9 10 8 8 10 12 18 21 24 23 20 20 23 24 25 25 26 28 29
9 19 15 15 15 12 5 6 4 4 3 2 3 9 4 4 7 8 12 10 16 15 3 3 5 2 5 2 3 4 4 0 3 6 6 3 4 8 11 16 23 25 24 22 20 20 23 24 24 24 27 28 30 29
12 22 17 18 14 15 5 3 4 5 5 4 3 6 4 5 8 7 6 14 11 6 6 2 6 4 4 4 3 2 5 3 10 5 1 8 12 15 20 25 25 23 22 20 21 23 24 23 22 21 26 30 31 29
7 20 21 21 16 8 3 3 4 3 3 4 5 9 5 6 7 7 8 14 6 6 7 4 2 3 2 4 3 5 6 3 4 9 13 18 18 17 18 19 21 22 22 23 24 23 21 21 22 25 28 27 28 26
6 20 30 28 20 5 4 3 4 4 3 4 6 7 5 4 7 6 11 11 8 4 2 2 3 3 4 4 5 6 7 11 15 17 15 12 14 17 20 21 24 23 24 25 24 20 19 20 21 24 24 24 27 25
12 25 31 28 17 6 4 4 3 3 5 3 7 5 2 5 3 2 3 7 5 3 4 7 13 13 12 12 12 14 16 16 16 16 18 18 16 19 21 18 17 19 20 21 20 19 20 23 26 27 29 28 25 22
25 29 27 16 6 4 4 3 5 6 3 5 6 3 2 2 2 1 2 4 4 8 11 14 16 16 15 14 12 12 13 14 17 19 20 18 17 15 16 17 18 19 19 20 20 22 23 23 26 27 29 26 24 23
30 24 10 5 4 3 3 4 2 3 3 4 4 3 2 2 2 3 3 5 7 12 12 14 13 11 11 11 12 13 14 15 13 7 5 10 15 18 21 22 22 22 23 23 24 24 24 24 25 26 25 24 22 27
18 5 4 4 4 3 3 2 3 3 3 2 2 2 1 1 2 1 3 5 10 11 10 9 7 7 7 7 9 11 13 10 8 11 14 18 23 26 26 29 29 28 28 28 26 25 25 26 25 23 21 22 23 23
5 4 3 5 3 4 3 3 2 2 2 3 2 2 2 2 2 3 3 5 8 7 5 4 3 2 5 9 10 12 10 13 16 22 25 26 28 30 30 28 26 28 25 23 21 21 23 21 18 19 21 19 19 21
5 2 2 3 3 2 4 4 4 3 3 3 3 1 2 3 3 4 3 3 3 3 6 4 5 10 11 13 18 19 18 21 24 29 32 29 29 29 30 29 27 23 21 19 18 18 16 17 19 19 17 15 17 19
4 2 2 4 6 6 4 3 4 2 4 5 4 5 4 3 4 3 2 2 2 4 2 8 13 17 21 25 26 26 27 28 29 31 33 33 30 25 24 23 23 22 19 17 16 15 18 19 16 15 15 16 17 17
4 5 5 7 3 4 4 5 5 6 4 6 8 5 4 5 1 1 2 1 5 12 18 21 23 24 24 25 26 28 28 28 28 29 29 26 22 23 21 19 18 17 15 14 16 18 17 14 15 16 16 16 16 18
2 6 7 5 2 4 5 7 6 6 6 10 5 4 4 4 3 4 9 14 17 19 20 22 22 23 23 23 21 21 22 22 21 19 16 14 11 13 13 13 13 14 17 17 15 13 13 14 15 14 14 16 17 18
3 8 3 4 4 4 3 8 3 5 7 10 6 4 5 5 7 9 11 12 13 14 16 17 19 20 20 19 18 13 13 11 10 10 10 9 10 12 13 14 14 14 13 12 12 11 12 12 12 13 14 16 16 16
2 5 3 4 4 4 6 8 10 12 13 13 14 12 9 7 7 4 6 8 10 11 11 10 10 12 12 12 13 11 10 11 11 11 11 12 13 13 13 13 13 13 12 12 12 13 13 12 12 11 11 12 12 11
2 3 2 2 2 4 4 4 4 5 10 12 9 7 4 4 3 2 7 8 8 10 12 12 11 10 10 10 11 12 13 15 16 16 15 15 15 15 15 15 14 14 13 11 10 10 9 8 8 8 9 9 10 10
1 3 3 3 3 2 2 2 2 3 3 1 1 2 2 3 3 3 7 11 13 14 14 13 12 12 12 13 15 16 16 17 17 17 17 18 18 18 17 16 14 12 10 9 8 8 8 8 9 9 9 10 10 11
Wind_Direction
157 181 186 190 196 193 191 193 196 201 205 207 203 199 197 192 183 174 164 165 153 121 163 174 155 157 152 162 150 152 141 156 91 95 159 193 204 195 211 262 214 247 226 211 203 257 266 90 311 271 313 311 294 299
95 171 180 192 201 204 204 197 198 201 204 210 209 202 200 196 193 186 181 174 164 146 171 174 174 174 179 189 164 167 173 148 162 112 176 140 187 160 233 249 188 257 207 274 195 242 282 299 296 275 292 275 289 290
63 119 197 204 205 204 204 208 207 204 206 208 211 208 201 199 197 194 188 182 174 143 134 162 178 178 173 171 172 150 186 173 170 150 148 148 196 167 184 224 253 249 236 244 278 260 271 298 302 254 275 275 319 312
69 56 169 209 211 211 214 213 212 208 206 210 211 208 202 195 193 192 186 185 185 160 144 192 187 183 187 188 195 205 203 189 177 170 132 145 186 202 211 260 239 255 272 269 274 274 289 277 325 332 312 297 318 264
55 36 22 228 217 215 212 212 213 212 212 209 209 208 204 197 190 187 186 188 189 187 159 156 183 194 190 194 203 211 209 191 180 158 142 199 191 174 198 308 257 256 262 234 252 287 278 281 321 304 272 268 271 297
15 30 356 11 230 223 218 212 211 208 211 212 209 206 206 203 195 185 193 210 200 193 157 146 214 200 200 198 198 196 194 208 199 176 185 209 207 195 183 226 273 274 256 263 279 225 227 288 256 190 233 288 306 310
17 28 15 291 320 237 229 217 214 211 210 212 215 211 207 204 200 187 191 190 199 197 172 145 209 214 204 199 200 203 209 211 218 213 207 220 213 193 181 245 269 257 247 223 208 236 155 168 204 209 287 300 306 303
357 19 28 10 246 254 243 230 209 209 208 209 214 216 210 215 211 209 190 140 176 179 186 149 215 202 189 184 191 200 195 194 208 221 195 197 174 210 243 251 188 120 179 190 200 188 149 145 166 292 301 307 309 309
280 337 10 11 2 252 267 238 221 199 203 206 209 211 211 210 204 210 212 219 219 206 199 166 159 208 176 163 157 159 171 162 206 216 197 181 176 217 224 199 188 211 210 180 149 131 138 310 310 311 312 311 309 311
243 306 346 13 348 354 242 235 219 214 197 203 207 183 203 181 184 188 210 204 212 213 221 189 177 142 176 165 139 135 169 185 205 167 189 206 243 201 189 178 167 167 165 154 154 190 256 305 308 306 305 307 310 313
237 285 325 358 353 308 338 234 197 204 191 190 169 169 173 153 164 190 176 180 172 169 187 160 181 139 156 157 127 153 156 155 221 141 250 211 235 193 178 162 150 147 152 155 144 160 301 300 304 306 309 312 317 317
238 246 332 2 17 17 191 137 120 158 162 156 141 130 139 160 139 142 167 150 195 178 169 158 152 122 128 127 121 136 170 170 209 130 227 237 178 158 155 158 161 163 157 159 302 311 312 310 307 308 313 313 314 313
217 210 280 16 37 29 182 113 123 105 138 129 110 107 145 146 171 182 173 150 154 162 160 153 111 117 118 125 94 174 183 181 148 197 234 247 157 165 171 176 176 173 191 312 313 310 306 303 301 307 308 311 312 315
223 207 225 218 36 0 161 190 178 152 48 73 86 103 59 99 33 58 3 79 108 147 140 138 93 93 122 86 103 162 67 212 219 227 226 173 175 172 172 170 163 190 285 309 309 306 302 303 304 308 309 311 313 316
216 207 219 225 236 277 194 166 152 126 71 79 53 76 67 110 97 107 103 104 105 144 136 104 85 126 98 108 81 128 172 230 237 241 95 167 165 168 172 175 215 286 303 307 308 306 300 298 304 308 311 313 317 317
218 202 216 212 198 203 193 139 126 121 97 96 100 106 128 103 131 131 139 131 145 152 131 113 128 168 120 129 170 200 204 227 194 186 138 150 171 189 209 221 276 296 301 301 300 297 296 303 305 305 307 315 318 318
231 208 207 199 199 199 191 181 119 75 94 95 71 113 127 117 162 161 160 161 165 162 159 166 182 141 122 174 207 196 224 284 150 135 136 162 234 233 233 281 297 299 298 296 295 295 299 304 305 305 307 315 319 318
238 198 198 191 192 203 169 80 71 55 60 69 83 134 98 127 147 145 147 160 168 177 158 167 134 182 198 198 203 205 216 179 168 164 275 308 298 280 275 288 294 293 292 294 296 298 300 302 304 306 310 315 314 316
243 191 182 183 186 177 74 87 96 103 83 105 104 147 113 130 152 164 159 175 158 168 152 151 172 203 206 215 207 157 173 175 269 281 286 296 295 292 289 288 290 289 291 293 294 295 295 298 303 307 311 312 313 315
217 191 176 178 166 130 112 107 129 117 144 156 137 136 139 149 153 159 179 180 171 172 194 212 226 206 204 203 214 223 263 292 297 294 291 290 294 301 299 297 293 291 288 291 292 292 298 304 308 308 308 305 307 312
224 175 174 171 143 90 99 120 108 113 125 110 140 129 125 136 127 156 163 185 194 215 228 230 242 254 262 269 276 282 283 281 277 276 286 291 295 293 301 304 302 294 290 290 289 290 296 303 309 310 309 310 310 311
174 161 140 126 89 93 87 88 112 116 113 129 139 127 124 147 156 169 199 200 225 231 231 244 256 268 275 280 282 276 278 277 279 283 288 292 301 312 311 311 307 301 295 289 283 286 291 302 309 309 311 312 311 309
144 133 95 87 109 88 96 108 103 90 127 132 131 145 136 142 158 168 235 234 248 254 257 260 268 272 275 281 285 285 282 278 272 266 296 315 316 315 314 313 310 305 298 288 282 283 287 296 304 308 310 311 309 309
121 90 94 87 82 102 114 63 79 95 100 109 160 165 166 150 155 226 259 251 247 256 262 264 261 263 277 288 298 301 283 243 264 297 309 313 313 313 311 308 305 301 298 296 291 283 284 293 300 306 306 307 309 317
95 39 96 73 93 120 122 126 112 151 136 138 166 205 168 166 201 223 240 257 261 270 232 205 211 271 301 320 328 331 284 256 292 300 304 308 309 306 304 304 303 302 303 300 291 286 291 297 301 302 304 308 311 312
79 52 59 123 135 152 145 144 168 159 149 158 218 178 154 206 233 239 220 287 299 129 105 58 356 335 326 323 320 312 301 287 284 287 294 300 303 301 301 303 304 304 305 299 292 293 296 299 303 305 306 308 311 317
113 122 107 113 124 127 108 95 115 157 176 195 185 170 182 218 235 243 281 312 127 128 355 324 319 315 310 308 303 296 290 287 286 286 289 291 294 292 295 292 289 288 294 290 290 290 300 304 303 302 301 307 315 319
99 139 153 159 123 173 165 182 177 192 192 180 156 186 202 211 211 189 187 275 298 304 310 310 307 306 304 300 300 300 298 295 292 292 292 292 290 283 280 283 281 284 288 289 289 295 300 299 294 298 303 308 308 314
95 150 134 144 154 207 221 199 208 211 195 174 192 203 219 203 205 257 284 297 301 303 304 304 306 307 308 308 308 307 305 306 308 309 306 302 286 259 274 281 280 290 296 296 294 294 295 294 297 297 297 299 304 309
157 168 147 153 187 222 245 203 220 234 222 222 240 243 259 261 276 290 299 305 312 318 323 327 326 324 325 326 329 333 320 326 332 334 334 325 315 306 307 304 303 300 297 296 299 303 304 304 300 298 298 300 306 310
147 165 186 197 241 242 247 253 258 263 263 263 265 260 268 251 232 291 324 344 347 345 346 356 359 356 358 1 1 358 340 343 347 341 334 326 321 318 315 313 311 309 309 312 315 313 312 313 313 313 316 318 320 322
183 206 226 235 258 275 305 270 260 254 268 272 270 248 221 164 123 323 3 15 6 3 5 4 2 4 5 358 348 343 337 334 331 330 329 326 322 320 318 317 317 316 317 319 318 317 318 320 324 328 329 329 328 327
256 257 257 277 290 300 338 322 308 299 265 296 32 65 84 99 106 24 0 3 1 360 357 349 336 320 315 317 317 319 320 321 323 323 321 318 316 315 314 312 312 314 317 318 316 317 321 325 326 327 327 326 324 323
Height
1456 1461 1466 1471 1476 1479 1483 1486 1490 1494 1497 1500 1502 1504 1506 1508 1510 1512 1513 1516 1518 1519 1523 1525 1526 1528 1531 1534 1537 1545 1549 1551 1555 1559 1565 1563 1565 1558 1559 1554 1556 1556 1560 1565 1568 1567 1557 1543 1543 1548 1541 1542 1542 1542
1456 1459 1464 1470 1474 1478 1482 1485 1488 1491 1495 1498 1501 1502 1505 1507 1509 1511 1514 1515 1517 1519 1523 1524 1526 1528 1529 1532 1534 1539 1541 1542 1546 1552 1560 1563 1565 1568 1559 1556 1553 1552 1549 1548 1553 1540 1535 1538 1541 1540 1539 1539 1538 1538
1459 1460 1463 1467 1471 1475 1479 1483 1487 1489 1492 1496 1499 1501 1503 1505 1508 1511 1512 1514 1517 1519 1523 1525 1526 1527 1529 1530 1532 1536 1539 1540 1542 1543 1550 1555 1558 1555 1560 1555 1551 1545 1546 1547 1546 1536 1534 1536 1536 1537 1536 1536 1535 1535
1460 1461 1462 1465 1468 1472 1476 1480 1485 1488 1491 1494 1497 1500 1502 1504 1507 1509 1511 1513 1516 1518 1520 1523 1523 1525 1527 1529 1531 1533 1534 1536 1539 1542 1544 1549 1551 1548 1551 1543 1542 1540 1541 1539 1536 1533 1533 1533 1535 1535 1535 1533 1532 1532
1460 1460 1461 1464 1466 1468 1472 1477 1481 1485 1489 1492 1495 1499 1501 1503 1505 1508 1509 1512 1514 1517 1518 1520 1522 1523 1524 1526 1529 1530 1532 1533 1535 1539 1542 1544 1543 1545 1545 1546 1538 1535 1532 1536 1533 1532 1533 1533 1532 1533 1532 1532 1531 1531
1461 1460 1461 1462 1464 1466 1469 1473 1478 1482 1486 1490 1493 1496 1499 1502 1505 1507 1510 1511 1512 1513 1517 1520 1521 1520 1522 1523 1526 1527 1529 1531 1532 1533 1535 1535 1535 1538 1540 1537 1530 1528 1527 1527 1528 1527 1529 1529 1529 1531 1532 1532 1531 1530
1461 1461 1461 1462 1463 1463 1465 1468 1473 1478 1483 1488 1492 1494 1497 1500 1503 1506 1508 1507 1508 1512 1515 1517 1517 1517 1518 1520 1522 1525 1526 1528 1530 1531 1530 1530 1532 1533 1532 1529 1525 1526 1525 1526 1525 1526 1528 1528 1529 1530 1529 1528 1527 1526
1461 1463 1462 1462 1461 1461 1462 1464 1468 1474 1479 1485 1490 1493 1496 1498 1501 1503 1505 1506 1508 1511 1513 1514 1515 1517 1516 1517 1520 1521 1523 1524 1526 1526 1526 1527 1528 1528 1524 1518 1521 1523 1524 1523 1523 1525 1526 1527 1528 1528 1527 1526 1524 1521
1462 1462 1462 1461 1461 1460 1460 1461 1463 1469 1476 1482 1486 1491 1494 1495 1496 1499 1504 1506 1507 1512 1508 1510 1510 1513 1513 1514 1516 1519 1520 1522 1523 1522 1523 1525 1522 1519 1515 1516 1517 1519 1522 1523 1524 1525 1526 1526 1526 1526 1524 1522 1519 1515
1461 1461 1461 1461 1460 1459 1459 1458 1459 1463 1470 1476 1482 1485 1485 1486 1492 1498 1502 1504 1504 1504 1504 1503 1506 1508 1511 1512 1515 1519 1519 1519 1518 1521 1521 1520 1514 1513 1513 1513 1515 1516 1519 1522 1523 1525 1524 1524 1524 1522 1520 1516 1513 1510
1460 1461 1463 1461 1460 1458 1458 1457 1457 1459 1462 1466 1467 1475 1481 1484 1489 1492 1494 1497 1498 1499 1498 1499 1502 1504 1508 1510 1511 1515 1515 1517 1513 1516 1517 1512 1505 1507 1509 1512 1514 1517 1519 1520 1521 1522 1521 1520 1518 1516 1514 1511 1508 1505
1459 1460 1460 1457 1458 1459 1459 1458 1459 1459 1458 1463 1466 1472 1480 1481 1483 1486 1488 1492 1492 1492 1495 1496 1500 1500 1505 1507 1509 1515 1514 1516 1510 1518 1517 1505 1500 1505 1508 1511 1513 1516 1517 1518 1518 1518 1518 1516 1514 1511 1509 1506 1502 1499
1457 1458 1459 1461 1461 1460 1459 1460 1461 1462 1462 1463 1467 1471 1474 1479 1479 1478 1478 1483 1486 1488 1492 1494 1498 1500 1504 1506 1509 1513 1512 1511 1518 1517 1505 1497 1501 1504 1508 1510 1512 1514 1516 1517 1516 1515 1513 1511 1509 1507 1504 1502 1497 1492
1457 1457 1458 1460 1460 1460 1461 1463 1464 1466 1466 1466 1468 1471 1473 1475 1479 1479 1481 1481 1484 1486 1489 1493 1498 1503 1506 1506 1510 1509 1517 1516 1511 1508 1498 1497 1500 1503 1506 1509 1511 1513 1514 1514 1512 1510 1508 1505 1503 1501 1498 1494 1490 1485
1455 1457 1459 1460 1461 1463 1463 1463 1464 1467 1468 1470 1472 1472 1475 1479 1482 1483 1484 1484 1486 1489 1492 1496 1501 1504 1506 1507 1509 1513 1515 1508 1502 1494 1495 1497 1500 1504 1506 1507 1509 1510 1509 1508 1506 1503 1501 1500 1497 1493 1490 1487 1484 1479
1453 1456 1458 1461 1462 1464 1464 1463 1465 1466 1470 1473 1474 1478 1481 1482 1483 1483 1485 1486 1487 1491 1495 1498 1501 1502 1503 1503 1506 1503 1503 1496 1493 1497 1498 1499 1501 1503 1505 1506 1506 1505 1503 1501 1499 1497 1496 1493 1490 1486 1483 1480 1476 1472
1452 1454 1456 1460 1462 1464 1464 1465 1466 1469 1472 1474 1477 1477 1480 1480 1482 1484 1485 1487 1489 1493 1495 1497 1497 1496 1504 1502 1502 1502 1497 1494 1495 1496 1498 1500 1501 1502 1503 1502 1500 1498 1496 1494 1492 1491 1489 1487 1484 1480 1476 1472 1469 1465
1450 1453 1456 1460 1462 1463 1465 1466 1467 1470 1473 1476 1478 1480 1481 1482 1484 1486 1486 1488 1491 1491 1493 1494 1495 1497 1495 1494 1491 1493 1494 1495 1495 1496 1498 1498 1499 1499 1498 1496 1494 1492 1490 1488 1486 1483 1480 1479 1477 1475 1471 1467 1462 1458
1449 1451 1456 1460 1463 1465 1467 1470 1473 1474 1477 1477 1478 1480 1481 1484 1485 1487 1488 1489 1490 1491 1492 1492 1493 1492 1491 1492 1491 1491 1493 1494 1496 1496 1495 1494 1493 1492 1492 1490 1488 1486 1484 1481 1479 1477 1474 1472 1471 1468 1465 1460 1455 1451
1446 1447 1452 1458 1462 1466 1469 1472 1473 1474 1478 1479 1479 1481 1483 1484 1486 1487 1488 1489 1490 1492 1492 1490 1489 1489 1489 1489 1490 1491 1491 1491 1491 1490 1489 1489 1488 1488 1486 1484 1481 1479 1476 1474 1472 1470 1468 1466 1464 1462 1459 1455 1450 1445
1445 1447 1452 1456 1460 1466 1469 1471 1473 1475 1477 1479 1479 1481 1483 1484 1485 1486 1487 1487 1488 1488 1488 1486 1485 1486 1487 1488 1489 1488 1488 1487 1485 1485 1485 1484 1484 1482 1479 1477 1474 1472 1470 1468 1466 1464 1463 1460 1458 1455 1451 1447 1444 1440
1443 1445 1449 1455 1462 1467 1470 1472 1474 1475 1478 1479 1482 1483 1484 1485 1486 1487 1486 1487 1487 1485 1483 1481 1482 1483 1484 1483 1483 1483 1482 1482 1481 1480 1480 1479 1476 1475 1473 1471 1468 1466 1464 1461 1459 1457 1456 1454 1451 1448 1444 1440 1437 1434
1444 1447 1453 1458 1464 1469 1475 1474 1475 1476 1478 1481 1482 1483 1484 1485 1485 1486 1486 1485 1481 1476 1476 1476 1477 1478 1478 1479 1479 1478 1478 1477 1476 1476 1475 1475 1473 1471 1468 1466 1463 1460 1457 1455 1453 1451 1449 1447 1444 1441 1438 1435 1432 1428
1446 1450 1455 1459 1464 1471 1473 1474 1475 1477 1479 1481 1481 1481 1483 1484 1485 1485 1483 1480 1473 1472 1473 1474 1474 1475 1475 1475 1475 1475 1474 1473 1472 1472 1471 1470 1467 1464 1462 1458 1455 1453 1450 1447 1445 1443 1441 1439 1437 1434 1432 1429 1426 1422
1450 1459 1460 1464 1467 1471 1473 1474 1476 1477 1477 1480 1482 1482 1483 1484 1484 1483 1480 1473 1469 1469 1470 1472 1473 1474 1474 1473 1472 1471 1470 1469 1467 1465 1464 1463 1459 1456 1453 1450 1447 1445 1443 1439 1437 1436 1434 1432 1431 1429 1426 1423 1420 1418
1454 1460 1461 1463 1467 1469 1472 1473 1475 1476 1477 1479 1481 1482 1481 1482 1480 1474 1472 1469 1469 1470 1471 1471 1471 1471 1471 1470 1468 1467 1467 1464 1461 1458 1456 1454 1452 1449 1445 1442 1440 1438 1435 1434 1432 1430 1428 1427 1424 1422 1420 1418 1416 1413
1456 1460 1461 1462 1464 1467 1470 1473 1474 1476 1477 1477 1477 1480 1479 1477 1472 1469 1468 1468 1468 1468 1468 1468 1468 1467 1465 1464 1462 1460 1458 1456 1453 1450 1448 1445 1443 1441 1439 1437 1434 1432 1430 1428 1426 1425 1423 1421 1419 1417 1416 1414 1412 1409
1455 1458 1460 1463 1464 1467 1469 1470 1470 1470 1470 1471 1473 1474 1472 1469 1466 1467 1467 1467 1466 1466 1466 1464 1463 1461 1459 1456 1453 1450 1447 1445 1442 1440 1437 1436 1435 1433 1431 1429 1427 1426 1424 1423 1421 1420 1418 1416 1414 1412 1411 1409 1407 1405
1458 1459 1461 1464 1466 1466 1465 1464 1463 1463 1463 1465 1466 1465 1465 1465 1465 1465 1464 1464 1463 1462 1460 1458 1457 1455 1452 1450 1447 1444 1441 1438 1436 1433 1431 1430 1430 1426 1425 1423 1422 1421 1419 1418 1416 1415 1413 1411 1409 1408 1406 1405 1402 1400
1459 1459 1460 1461 1463 1461 1459 1459 1459 1460 1460 1461 1462 1462 1462 1461 1461 1460 1460 1459 1458 1457 1455 1453 1451 1448 1446 1443 1442 1440 1438 1436 1434 1432 1429 1427 1426 1424 1421 1419 1418 1416 1415 1413 1411 1410 1408 1407 1405 1403 1402 1399 1398 1395
1457 1458 1460 1460 1459 1457 1456 1457 1457 1457 1457 1457 1457 1458 1458 1457 1457 1457 1457 1456 1456 1454 1453 1451 1449 1446 1445 1442 1441 1439 1438 1436 1434 1432 1429 1427 1424 1422 1419 1417 1415 1413 1411 1409 1407 1406 1404 1402 1400 1398 1397 1395 1393 1391
1457 1457 1458 1457 1455 1455 1454 1454 1453 1453 1452 1452 1452 1451 1452 1453 1456 1457 1456 1456 1455 1454 1452 1450 1448 1446 1445 1443 1442 1440 1438 1435 1433 1430 1427 1424 1422 1419 1417 1414 1412 1410 1408 1406 1404 1402 1400 1398 1397 1395 1393 1391 1390 1388
1456 1456 1456 1456 1454 1453 1453 1453 1452 1450 1450 1449 1450 1450 1451 1453 1456 1458 1456 1455 1454 1452 1451 1449 1448 1446 1444 1442 1440 1438 1436 1433 1430 1427 1424 1421 1418 1416 1413 1411 1408 1406 1404 1403 1401 1399 1397 1396 1394 1392 1390 1389 1387 1386